Location: Colebrook
(42.0017°N, 73.0973°W)
Time: 10:17:43
(UTC-04:00)

Tiros 1 - Visible Passes

Search period start: 25 October 2021 00:00
Search period end: 04 November 2021 00:00
Orbit: 630 x 664 km, 48.4° (Epoch: 24 October)

Date Brightness Start Highest point End Pass type
(mag) Time Alt. Az. Time Alt. Az. Time Alt. Az.
01 Nov 9.7 06:32:34 10° S 06:36:18 23° SE 06:40:01 10° E visible
02 Nov 8.4 06:57:20 10° SW 07:01:55 46° SE 07:06:31 10° ENE visible
03 Nov 9.6 05:42:28 10° S 05:46:01 21° SE 05:49:35 10° E visible
